Torna al catalogo

COSMOS 917 DEB

LostHEO
NORAD 48089·DEBRIS·🇷🇺 Russia

Lanciato Jun 16, 1977 da Plesetsk Cosmodrome

Loading…

Prossimi Passaggi (prossime 24 ore)

TLE

ObsoletoSource: Space-Track

Epoca: Jul 12, 2022, 07:53 UTC

1 48089U 77047T   22193.32850047  .00000050  00000-0  00000+0 0  9994
2 48089  71.5232 137.2791 6092299 181.1100 176.5681  2.00513379496687

Traccia COSMOS 917 DEB in tempo reale con AllMySat

Download on the App Store